Zurück zum Katalog

FENGYUN 1C DEB

AktivSSO
NORAD 31244·DEBRIS·🇨🇳 China

Gestartet May 10, 1999 von Taiyuan Satellite Launch Center

Loading…

Nächste Überflüge (nächste 24 Stunden)

TLE

AlterndSource: Space-Track

Epoche: Sep 5, 2026, 09:44 UTC

1 31244U 99025BMA 26248.40561761  .00000602  00000-0  37186-3 0  9997
2 31244  99.0050 316.0461 0102431 150.4338 210.2676 14.06587887613889

Verfolge FENGYUN 1C DEB in Echtzeit mit AllMySat

Download on the App Store